| time (UTC) | temp F | wind direction | speed MPH | gust MPH | rain 1hr in | rain 24hr in | rain mn in | humidity % | barometer mb |
| 20260503004423 | 58 | 159 | 2.0 | 4.0 | 0.00 | 0.40 | 0.02 | 93 | 1011.5 |
| 20260503004158 | 58 | 193 | 1.0 | 3.0 | 0.00 | 0.40 | 0.02 | 93 | 1011.7 |
| 20260503003428 | 58 | 181 | 2.0 | 4.0 | 0.00 | 0.40 | 0.02 | 93 | 1011.7 |
| 20260503002924 | 58 | 136 | 2.0 | 6.0 | 0.00 | 0.40 | 0.02 | 93 | 1011.7 |
| 20260503002428 | 58 | 131 | 2.0 | 6.0 | 0.00 | 0.40 | 0.02 | 93 | 1011.7 |
| 20260503001923 | 58 | 148 | 2.0 | 6.0 | 0.00 | 0.40 | 0.02 | 93 | 1011.8 |
| 20260503001425 | 58 | 114 | 2.0 | 6.0 | 0.00 | 0.40 | 0.02 | 93 | 1011.7 |
| 20260503000923 | 58 | 159 | 2.0 | 6.0 | 0.00 | 0.40 | 0.02 | 93 | 1011.6 |
| 20260503000425 | 58 | 95 | 2.0 | 7.0 | 0.00 | 0.40 | 0.02 | 93 | 1011.8 |
| 20260503000155 | 58 | 57 | 3.0 | 7.0 | 0.01 | 0.40 | 0.02 | 93 | 1011.9 |
| 20260502235423 | 58 | 97 | 3.0 | 7.0 | 0.01 | 0.40 | 0.02 | 93 | 1012.0 |
| 20260502234924 | 58 | 114 | 3.0 | 7.0 | 0.02 | 0.40 | 0.02 | 93 | 1012.3 |
| 20260502234653 | 58 | 130 | 1.0 | 7.0 | 0.02 | 0.40 | 0.02 | 93 | 1012.3 |
| 20260502233925 | 58 | 138 | 1.0 | 5.0 | 0.02 | 0.40 | 0.02 | 93 | 1012.2 |
| 20260502233425 | 58 | 203 | 2.0 | 6.0 | 0.02 | 0.40 | 0.02 | 92 | 1012.3 |
| 20260502232923 | 58 | 88 | 3.0 | 6.0 | 0.02 | 0.40 | 0.02 | 92 | 1012.4 |
| 20260502232436 | 58 | 229 | 2.0 | 6.0 | 0.02 | 0.40 | 0.02 | 92 | 1012.6 |
| 20260502232153 | 58 | 182 | 3.0 | 7.0 | 0.02 | 0.40 | 0.02 | 92 | 1012.6 |
| 20260502231421 | 58 | 160 | 3.0 | 7.0 | 0.02 | 0.40 | 0.02 | 92 | 1012.6 |
| 20260502230915 | 58 | 196 | 4.0 | 8.0 | 0.02 | 0.40 | 0.02 | 92 | 1012.4 |
| 20260502230412 | 58 | 113 | 4.0 | 9.0 | 0.02 | 0.40 | 0.02 | 92 | 1012.4 |
| 20260502225912 | 58 | 109 | 4.0 | 9.0 | 0.01 | 0.39 | 0.02 | 92 | 1012.5 |
| 20260502225643 | 58 | 125 | 3.0 | 9.0 | 0.01 | 0.39 | 0.01 | 92 | 1012.6 |
| 20260502224912 | 58 | 188 | 3.0 | 7.0 | 0.00 | 0.39 | 0.00 | 92 | 1012.8 |
| 20260502224411 | 58 | 77 | 3.0 | 8.0 | 0.00 | 0.39 | 0.00 | 92 | 1012.8 |
| 20260502223911 | 58 | 80 | 4.0 | 9.0 | 0.01 | 0.39 | 0.00 | 91 | 1012.9 |
| 20260502223409 | 58 | 51 | 5.0 | 9.0 | 0.02 | 0.39 | 0.00 | 91 | 1012.8 |
| 20260502222908 | 58 | 58 | 4.0 | 9.0 | 0.04 | 0.39 | 0.00 | 91 | 1012.8 |
| 20260502222407 | 58 | 101 | 4.0 | 10.0 | 0.06 | 0.39 | 0.00 | 91 | 1012.7 |
| 20260502222138 | 58 | 100 | 4.0 | 10.0 | 0.06 | 0.39 | 0.00 | 91 | 1012.8 |
| 20260502221407 | 58 | 69 | 4.0 | 8.0 | 0.09 | 0.39 | 0.00 | 91 | 1012.8 |
| 20260502220908 | 58 | 86 | 4.0 | 7.0 | 0.15 | 0.39 | 0.00 | 91 | 1012.8 |
| 20260502215900 | 58 | 59 | 4.0 | 9.0 | 0.27 | 0.39 | 0.39 | 90 | 1012.8 |
| 20260502215356 | 58 | 46 | 3.0 | 9.0 | 0.34 | 0.39 | 0.39 | 90 | 1012.7 |
| 20260502214848 | 58 | 49 | 3.0 | 7.0 | 0.39 | 0.39 | 0.39 | 89 | 1012.9 |
| 20260502214618 | 59 | 48 | 3.0 | 6.0 | 0.39 | 0.39 | 0.39 | 89 | 1013.1 |
| 20260502213848 | 59 | 76 | 3.0 | 6.0 | 0.38 | 0.38 | 0.38 | 89 | 1013.2 |
| 20260502212844 | 59 | 313 | 2.0 | 4.0 | 0.35 | 0.35 | 0.35 | 88 | 1013.6 |
| 20260502212615 | 59 | 323 | 2.0 | 5.0 | 0.33 | 0.33 | 0.33 | 87 | 1014.0 |
| 20260502211845 | 60 | 318 | 3.0 | 10.0 | 0.31 | 0.31 | 0.32 | 86 | 1014.2 |
| 20260502211613 | 60 | 236 | 4.0 | 10.0 | 0.28 | 0.28 | 0.28 | 85 | 1014.6 |
| 20260502210842 | 60 | 275 | 6.0 | 14.0 | 0.22 | 0.22 | 0.24 | 84 | 1014.7 |
| 20260502210341 | 61 | 299 | 7.0 | 14.0 | 0.16 | 0.16 | 0.17 | 83 | 1014.8 |
| 20260502205842 | 62 | 246 | 7.0 | 20.0 | 0.12 | 0.12 | 0.13 | 80 | 1014.9 |
| 20260502205343 | 63 | 290 | 8.0 | 20.0 | 0.05 | 0.05 | 0.06 | 77 | 1014.5 |
| 20260502205110 | 63 | 236 | 6.0 | 17.0 | 0.00 | 0.00 | 0.00 | 70 | 1014.2 |
| 20260502204334 | 63 | 201 | 3.0 | 12.0 | 0.00 | 0.00 | 0.00 | 68 | 1014.1 |
| 20260502203834 | 63 | 98 | 3.0 | 6.0 | 0.00 | 0.00 | 0.00 | 67 | 1012.9 |
| 20260502203334 | 63 | 35 | 3.0 | 6.0 | 0.00 | 0.00 | 0.00 | 67 | 1012.9 |
| 20260502202832 | 63 | 28 | 3.0 | 6.0 | 0.00 | 0.00 | 0.00 | 66 | 1013.0 |
| 20260502202331 | 63 | 63 | 3.0 | 6.0 | 0.00 | 0.00 | 0.00 | 66 | 1013.1 |
| 20260502201830 | 63 | 63 | 4.0 | 7.0 | 0.00 | 0.00 | 0.00 | 65 | 1012.9 |
| 20260502201330 | 63 | 39 | 3.0 | 7.0 | 0.00 | 0.00 | 0.00 | 65 | 1013.0 |
| 20260502200830 | 64 | 44 | 2.0 | 6.0 | 0.00 | 0.00 | 0.00 | 65 | 1013.1 |
| 20260502200328 | 64 | 13 | 2.0 | 6.0 | 0.00 | 0.00 | 0.00 | 65 | 1013.2 |
| 20260502195828 | 64 | 315 | 2.0 | 5.0 | 0.00 | 0.00 | 0.00 | 64 | 1013.3 |
| 20260502195329 | 64 | 350 | 2.0 | 5.0 | 0.00 | 0.00 | 0.00 | 64 | 1013.4 |
| 20260502194826 | 64 | 346 | 3.0 | 7.0 | 0.00 | 0.00 | 0.00 | 63 | 1013.4 |
| 20260502194551 | 64 | 60 | 3.0 | 7.0 | 0.00 | 0.00 | 0.00 | 63 | 1013.3 |
| 20260502193816 | 64 | 56 | 2.0 | 5.0 | 0.00 | 0.00 | 0.00 | 63 | 1013.4 |
| 20260502193547 | 64 | 5 | 2.0 | 5.0 | 0.00 | 0.00 | 0.00 | 62 | 1013.6 |
| 20260502192816 | 65 | 58 | 2.0 | 5.0 | 0.00 | 0.00 | 0.00 | 62 | 1013.5 |
| 20260502192316 | 65 | 9 | 2.0 | 5.0 | 0.00 | 0.00 | 0.00 | 63 | 1013.6 |
| 20260502191817 | 65 | 313 | 2.0 | 4.0 | 0.00 | 0.00 | 0.00 | 63 | 1013.6 |
| 20260502191317 | 65 | 339 | 2.0 | 4.0 | 0.00 | 0.00 | 0.00 | 64 | 1013.6 |
| 20260502190818 | 65 | 5 | 2.0 | 4.0 | 0.00 | 0.00 | 0.00 | 64 | 1013.6 |
| 20260502190316 | 65 | 355 | 2.0 | 4.0 | 0.00 | 0.00 | 0.00 | 63 | 1013.6 |
| 20260502185817 | 66 | 0 | 2.0 | 4.0 | 0.00 | 0.00 | 0.00 | 63 | 1013.6 |
| 20260502185317 | 66 | 334 | 2.0 | 4.0 | 0.00 | 0.00 | 0.00 | 62 | 1013.6 |
| 20260502184817 | 67 | 337 | 3.0 | 4.0 | 0.00 | 0.00 | 0.00 | 61 | 1013.8 |
| 20260502184317 | 67 | 319 | 3.0 | 5.0 | 0.00 | 0.00 | 0.00 | 60 | 1013.8 |
| 20260502184047 | 67 | 71 | 2.0 | 5.0 | 0.00 | 0.00 | 0.00 | 60 | 1013.8 |
| 20260502182816 | 67 | 59 | 3.0 | 6.0 | 0.00 | 0.00 | 0.00 | 60 | 1013.7 |
| 20260502182316 | 68 | 47 | 3.0 | 5.0 | 0.00 | 0.00 | 0.00 | 60 | 1013.7 |
| 20260502181815 | 68 | 60 | 3.0 | 5.0 | 0.00 | 0.00 | 0.00 | 59 | 1013.8 |
| 20260502181315 | 69 | 333 | 3.0 | 6.0 | 0.00 | 0.00 | 0.00 | 59 | 1013.8 |
| 20260502180821 | 69 | 344 | 3.0 | 6.0 | 0.00 | 0.00 | 0.00 | 59 | 1013.8 |
| 20260502180315 | 69 | 355 | 3.0 | 6.0 | 0.00 | 0.00 | 0.00 | 59 | 1013.8 |
| 20260502164302 | 75 | 317 | 3.0 | 8.0 | 0.00 | 0.00 | 0.00 | 49 | 1014.3 |
| 20260502163802 | 76 | 355 | 4.0 | 9.0 | 0.00 | 0.00 | 0.00 | 49 | 1014.3 |
| 20260502163302 | 76 | 321 | 5.0 | 9.0 | 0.00 | 0.00 | 0.00 | 49 | 1014.4 |
| 20260502162759 | 76 | 336 | 6.0 | 9.0 | 0.00 | 0.00 | 0.00 | 49 | 1014.5 |
| 20260502162300 | 76 | 305 | 6.0 | 10.0 | 0.00 | 0.00 | 0.00 | 49 | 1014.7 |
| 20260502161803 | 77 | 311 | 6.0 | 10.0 | 0.00 | 0.00 | 0.00 | 49 | 1014.6 |
| 20260502161258 | 77 | 350 | 6.0 | 11.0 | 0.00 | 0.00 | 0.00 | 49 | 1014.6 |
| 20260502160758 | 77 | 323 | 5.0 | 11.0 | 0.00 | 0.00 | 0.00 | 49 | 1014.6 |
| 20260502160257 | 78 | 321 | 5.0 | 8.0 | 0.00 | 0.00 | 0.00 | 48 | 1014.7 |
| 20260502152247 | 80 | 185 | 2.0 | 6.0 | 0.00 | 0.00 | 0.00 | 45 | 1015.2 |
| 20260502152018 | 80 | 184 | 2.0 | 6.0 | 0.00 | 0.00 | 0.00 | 46 | 1015.3 |
| 20260502151247 | 80 | 250 | 2.0 | 7.0 | 0.00 | 0.00 | 0.00 | 48 | 1015.3 |
| 20260502150248 | 79 | 229 | 2.0 | 5.0 | 0.00 | 0.00 | 0.00 | 49 | 1015.5 |
| 20260502130728 | 75 | 281 | 4.0 | 9.0 | 0.00 | 0.00 | 0.00 | 59 | 1016.9 |
| 20260502130228 | 75 | 218 | 4.0 | 9.0 | 0.00 | 0.00 | 0.00 | 59 | 1016.9 |
| 20260502123727 | 74 | 241 | 3.0 | 9.0 | 0.00 | 0.00 | 0.00 | 59 | 1016.9 |
| 20260502123227 | 74 | 233 | 3.0 | 9.0 | 0.00 | 0.00 | 0.00 | 60 | 1017.0 |
| 20260502122727 | 74 | 252 | 3.0 | 9.0 | 0.00 | 0.00 | 0.00 | 60 | 1017.0 |
| 20260502122240 | 74 | 227 | 4.0 | 8.0 | 0.00 | 0.00 | 0.00 | 59 | 1017.2 |
| 20260502121727 | 74 | 212 | 5.0 | 10.0 | 0.00 | 0.00 | 0.00 | 59 | 1017.2 |
| 20260502121227 | 74 | 225 | 5.0 | 10.0 | 0.00 | 0.00 | 0.00 | 59 | 1017.3 |
| 20260502120728 | 74 | 217 | 6.0 | 12.0 | 0.00 | 0.00 | 0.00 | 60 | 1017.3 |
| 20260502120227 | 74 | 215 | 6.0 | 14.0 | 0.00 | 0.00 | 0.00 | 60 | 1017.4 |
| 20260502115727 | 74 | 209 | 5.0 | 14.0 | 0.00 | 0.00 | 0.00 | 61 | 1017.4 |
| 20260502115227 | 73 | 190 | 4.0 | 11.0 | 0.00 | 0.00 | 0.00 | 62 | 1017.4 |
| 20260502114721 | 73 | 284 | 4.0 | 11.0 | 0.00 | 0.00 | 0.00 | 63 | 1017.6 |
| 20260502113708 | 72 | 207 | 4.0 | 10.0 | 0.00 | 0.00 | 0.00 | 63 | 1017.6 |
| 20260502113202 | 72 | 282 | 4.0 | 9.0 | 0.00 | 0.00 | 0.00 | 62 | 1017.7 |
| 20260502112656 | 72 | 277 | 4.0 | 12.0 | 0.00 | 0.00 | 0.00 | 62 | 1017.8 |
| 20260502112150 | 72 | 219 | 4.0 | 12.0 | 0.00 | 0.00 | 0.00 | 63 | 1017.8 |
| 20260502111650 | 72 | 228 | 4.0 | 11.0 | 0.00 | 0.00 | 0.00 | 62 | 1017.7 |
| 20260502111418 | 72 | 229 | 5.0 | 11.0 | 0.00 | 0.00 | 0.00 | 62 | 1017.8 |
| 20260502110919 | 73 | 192 | 4.0 | 9.0 | 0.00 | 0.00 | 0.00 | 62 | 1017.9 |
| 20260502110146 | 72 | 244 | 3.0 | 8.0 | 0.00 | 0.00 | 0.00 | 62 | 1017.8 |
| 20260502105647 | 72 | 157 | 3.0 | 8.0 | 0.00 | 0.00 | 0.00 | 63 | 1017.8 |
| 20260502105146 | 72 | 221 | 4.0 | 13.0 | 0.00 | 0.00 | 0.00 | 64 | 1017.8 |
| 20260502104645 | 72 | 239 | 5.0 | 13.0 | 0.00 | 0.00 | 0.00 | 65 | 1017.9 |
| 20260502104144 | 72 | 235 | 5.0 | 12.0 | 0.00 | 0.00 | 0.00 | 64 | 1017.9 |
| 20260502103914 | 72 | 219 | 5.0 | 12.0 | 0.00 | 0.00 | 0.00 | 62 | 1017.9 |
| 20260502103144 | 72 | 219 | 5.0 | 12.0 | 0.00 | 0.00 | 0.00 | 63 | 1018.0 |
| 20260502102641 | 71 | 239 | 5.0 | 12.0 | 0.00 | 0.00 | 0.00 | 63 | 1018.0 |
| 20260502102142 | 71 | 220 | 4.0 | 9.0 | 0.00 | 0.00 | 0.00 | 64 | 1018.0 |
| 20260502101139 | 71 | 234 | 4.0 | 10.0 | 0.00 | 0.00 | 0.00 | 66 | 1018.0 |
| 20260502100639 | 70 | 219 | 5.0 | 10.0 | 0.00 | 0.00 | 0.00 | 66 | 1018.0 |
| 20260502100140 | 70 | 186 | 6.0 | 10.0 | 0.00 | 0.00 | 0.00 | 65 | 1018.1 |
| 20260502090902 | 65 | 225 | 2.0 | 5.0 | 0.00 | 0.00 | 0.00 | 73 | 1018.3 |
| 20260502090129 | 65 | 228 | 3.0 | 8.0 | 0.00 | 0.00 | 0.00 | 72 | 1018.3 |
| 20260502071349 | 58 | 22 | 0.0 | 0.0 | 0.00 | 0.00 | 0.00 | 72 | 1017.9 |
| 20260502070611 | 58 | 23 | 0.0 | 0.0 | 0.00 | 0.00 | 0.00 | 72 | 1017.8 |
| 20260502070107 | 58 | 23 | 0.0 | 0.0 | 0.00 | 0.00 | 0.00 | 72 | 1018.0 |
| 20260502065601 | 57 | 23 | 0.0 | 1.0 | 0.00 | 0.00 | 0.00 | 71 | 1018.0 |
| 20260502065057 | 57 | 22 | 0.0 | 2.0 | 0.00 | 0.00 | 0.00 | 71 | 1017.9 |
| 20260502064600 | 57 | 23 | 0.0 | 2.0 | 0.00 | 0.00 | 0.00 | 71 | 1017.9 |
| 20260502063554 | 56 | 22 | 1.0 | 3.0 | 0.00 | 0.00 | 0.00 | 70 | 1017.8 |
| 20260502063052 | 56 | 23 | 1.0 | 3.0 | 0.00 | 0.00 | 0.00 | 70 | 1017.9 |
| 20260502062553 | 56 | 235 | 2.0 | 3.0 | 0.00 | 0.00 | 0.00 | 70 | 1018.2 |
| 20260502062050 | 56 | 211 | 3.0 | 6.0 | 0.00 | 0.00 | 0.00 | 70 | 1018.3 |
| 20260502061550 | 56 | 225 | 3.0 | 6.0 | 0.00 | 0.00 | 0.00 | 70 | 1018.3 |
| 20260502061049 | 56 | 217 | 2.0 | 5.0 | 0.00 | 0.00 | 0.00 | 70 | 1018.4 |
| 20260502060549 | 56 | 191 | 3.0 | 5.0 | 0.00 | 0.00 | 0.00 | 70 | 1018.2 |
| 20260502060059 | 56 | 221 | 3.0 | 7.0 | 0.00 | 0.00 | 0.00 | 69 | 1018.3 |
| 20260502055548 | 56 | 195 | 2.0 | 7.0 | 0.00 | 0.00 | 0.00 | 69 | 1018.3 |
| 20260502055320 | 56 | 198 | 1.0 | 4.0 | 0.00 | 0.00 | 0.00 | 69 | 1018.1 |
| 20260502054044 | 55 | 217 | 1.0 | 3.0 | 0.00 | 0.00 | 0.00 | 70 | 1018.1 |
| 20260502053815 | 55 | 178 | 0.0 | 3.0 | 0.00 | 0.00 | 0.00 | 69 | 1018.1 |
| 20260502053046 | 55 | 219 | 1.0 | 3.0 | 0.00 | 0.00 | 0.00 | 69 | 1018.1 |
| 20260502052544 | 55 | 219 | 2.0 | 4.0 | 0.00 | 0.00 | 0.00 | 68 | 1018.0 |
| 20260502052317 | 55 | 231 | 2.0 | 4.0 | 0.00 | 0.00 | 0.00 | 68 | 1018.1 |
| 20260502051544 | 55 | 204 | 2.0 | 4.0 | 0.00 | 0.00 | 0.00 | 68 | 1018.0 |
| 20260502051049 | 55 | 220 | 2.0 | 3.0 | 0.00 | 0.00 | 0.00 | 68 | 1018.0 |
| 20260502050544 | 55 | 229 | 2.0 | 3.0 | 0.00 | 0.00 | 0.00 | 67 | 1017.9 |
| 20260502050057 | 55 | 250 | 2.0 | 4.0 | 0.00 | 0.00 | 0.00 | 67 | 1018.1 |
| 20260502045545 | 55 | 216 | 1.0 | 4.0 | 0.00 | 0.00 | 0.00 | 66 | 1018.0 |
| 20260502045042 | 55 | 205 | 2.0 | 7.0 | 0.00 | 0.00 | 0.00 | 66 | 1017.9 |
| 20260502044814 | 55 | 247 | 2.0 | 7.0 | 0.00 | 0.00 | 0.00 | 66 | 1018.0 |
| 20260502044041 | 55 | 243 | 2.0 | 5.0 | 0.00 | 0.00 | 0.00 | 66 | 1018.1 |
| 20260502043537 | 55 | 225 | 2.0 | 5.0 | 0.00 | 0.00 | 0.00 | 65 | 1018.0 |
| 20260502043028 | 54 | 223 | 2.0 | 5.0 | 0.00 | 0.00 | 0.00 | 65 | 1018.1 |
| 20260502042759 | 54 | 207 | 3.0 | 6.0 | 0.00 | 0.00 | 0.00 | 64 | 1017.9 |
| 20260502042030 | 54 | 201 | 4.0 | 6.0 | 0.00 | 0.00 | 0.00 | 64 | 1017.6 |
| 20260502041528 | 54 | 205 | 4.0 | 6.0 | 0.00 | 0.00 | 0.00 | 65 | 1017.6 |
| 20260502041030 | 54 | 198 | 4.0 | 6.0 | 0.00 | 0.00 | 0.00 | 65 | 1017.8 |
| 20260502040801 | 54 | 186 | 4.0 | 6.0 | 0.00 | 0.00 | 0.00 | 65 | 1017.8 |
| 20260502040028 | 54 | 201 | 4.0 | 6.0 | 0.00 | 0.00 | 0.00 | 65 | 1017.9 |
| 20260502035528 | 54 | 223 | 3.0 | 6.0 | 0.00 | 0.00 | 0.00 | 64 | 1017.9 |
| 20260502035026 | 54 | 202 | 3.0 | 5.0 | 0.00 | 0.00 | 0.00 | 64 | 1017.9 |
| 20260502034526 | 54 | 196 | 4.0 | 7.0 | 0.00 | 0.00 | 0.00 | 64 | 1017.9 |
| 20260502034258 | 54 | 185 | 4.0 | 7.0 | 0.00 | 0.00 | 0.00 | 64 | 1017.9 |
| 20260502033526 | 54 | 192 | 3.0 | 6.0 | 0.00 | 0.00 | 0.00 | 64 | 1018.0 |
| 20260502033259 | 54 | 211 | 4.0 | 7.0 | 0.00 | 0.00 | 0.00 | 64 | 1018.0 |
| 20260502032522 | 54 | 196 | 4.0 | 7.0 | 0.00 | 0.00 | 0.00 | 63 | 1018.0 |
| 20260502032015 | 54 | 190 | 4.0 | 7.0 | 0.00 | 0.00 | 0.00 | 63 | 1018.1 |
| 20260502031510 | 54 | 199 | 4.0 | 8.0 | 0.00 | 0.00 | 0.00 | 62 | 1018.2 |
| 20260502031004 | 54 | 224 | 5.0 | 8.0 | 0.00 | 0.00 | 0.00 | 62 | 1018.2 |
| 20260502025955 | 55 | 190 | 3.0 | 8.0 | 0.00 | 0.00 | 0.00 | 60 | 1018.4 |
| 20260502025454 | 55 | 176 | 3.0 | 6.0 | 0.00 | 0.00 | 0.00 | 59 | 1018.2 |
| 20260502024954 | 55 | 294 | 4.0 | 7.0 | 0.00 | 0.00 | 0.00 | 60 | 1018.2 |
| 20260502024454 | 55 | 167 | 4.0 | 8.0 | 0.00 | 0.00 | 0.00 | 60 | 1018.2 |
| 20260502023956 | 55 | 183 | 4.0 | 8.0 | 0.00 | 0.00 | 0.00 | 60 | 1018.2 |
| 20260502023454 | 55 | 176 | 4.0 | 7.0 | 0.00 | 0.00 | 0.00 | 60 | 1018.2 |
| 20260502022956 | 55 | 172 | 4.0 | 7.0 | 0.00 | 0.00 | 0.00 | 60 | 1018.2 |
| 20260502022454 | 55 | 206 | 4.0 | 7.0 | 0.00 | 0.00 | 0.00 | 59 | 1018.4 |
| 20260502021954 | 55 | 216 | 5.0 | 7.0 | 0.00 | 0.00 | 0.00 | 59 | 1018.5 |
| 20260502021726 | 55 | 194 | 4.0 | 7.0 | 0.00 | 0.00 | 0.00 | 60 | 1018.5 |
| 20260502020953 | 55 | 196 | 4.0 | 8.0 | 0.00 | 0.00 | 0.00 | 60 | 1018.5 |
| 20260502020449 | 55 | 182 | 4.0 | 8.0 | 0.00 | 0.00 | 0.00 | 60 | 1018.5 |
| 20260502020221 | 55 | 196 | 3.0 | 6.0 | 0.00 | 0.00 | 0.00 | 59 | 1018.6 |
| 20260502015448 | 56 | 176 | 3.0 | 6.0 | 0.00 | 0.00 | 0.00 | 59 | 1018.5 |
| 20260502014950 | 56 | 192 | 4.0 | 6.0 | 0.00 | 0.00 | 0.00 | 58 | 1018.6 |
| 20260502014446 | 56 | 175 | 4.0 | 7.0 | 0.00 | 0.00 | 0.00 | 58 | 1018.6 |
| 20260502013946 | 56 | 199 | 4.0 | 7.0 | 0.00 | 0.00 | 0.00 | 57 | 1018.5 |
| 20260502012944 | 56 | 171 | 4.0 | 8.0 | 0.00 | 0.00 | 0.00 | 57 | 1018.7 |
| 20260502012446 | 56 | 173 | 4.0 | 8.0 | 0.00 | 0.00 | 0.00 | 56 | 1018.8 |
| 20260502011945 | 56 | 184 | 4.0 | 7.0 | 0.00 | 0.00 | 0.00 | 56 | 1018.7 |
| 20260502011446 | 56 | 176 | 4.0 | 6.0 | 0.00 | 0.00 | 0.00 | 56 | 1018.8 |
| 20260502011214 | 57 | 192 | 4.0 | 6.0 | 0.00 | 0.00 | 0.00 | 56 | 1018.8 |
| 20260502010444 | 57 | 194 | 4.0 | 6.0 | 0.00 | 0.00 | 0.00 | 56 | 1018.8 |
| 20260502005947 | 57 | 204 | 4.0 | 6.0 | 0.00 | 0.00 | 0.00 | 56 | 1018.9 |
| 20260502005439 | 57 | 172 | 4.0 | 7.0 | 0.00 | 0.00 | 0.00 | 56 | 1018.9 |